Regional Weather Roundup
Issued by NWS

Home | Current Version | Previous Version | Graphics & Text | Print | Product List | Glossary On
Versions: 1 2 3 4 5 6 7 8 9 10 11 12 13 14 15 16 17 18 19 20 21 22 23 24 25 26 27 28 29 30 31 32 33 34 35 36 37 38 39 40 41 42 43 44 45 46 47 48 49 50
677
ASUS43 KDTX 272010
RWRMI
MICHIGAN HOURLY REGIONAL WEATHER ROUNDUP
NATIONAL WEATHER SERVICE DETROIT/PONTIAC MI
ISSUED BY NATIONAL WEATHER SERVICE GRAND RAPIDS MI
400 PM EDT TUE JUN 27 2017

NOTE: "FAIR" INDICATES FEW OR NO CLOUDS BELOW 12,000 FEET WITH NO
SIGNIFICANT WEATHER AND/OR OBSTRUCTION TO VISIBILITY.

MIZ047>049-052>055-059>063-066>070-074>076-081>083-272100-
SOUTHEAST LOWER MICHIGAN

CITY           SKY/WX    TMP DP  RH WIND       PRES   REMARKS
ADRIAN         PTSUNNY   71  45  39 W13       30.07F
ALMA           CLOUDY    69  47  45 W9G16     30.04S
ANN ARBOR      CLOUDY    70  46  42 W13G22    30.05F
BAD AXE        PTSUNNY   68  46  45 W10G18    30.01F
DETROIT CITY   PTSUNNY   73  44  35 W10G18    30.04F
DETROIT        PTSUNNY   74  45  35 W12       30.05F
FLINT          MOSUNNY   74  46  36 W13       30.03F
GROSSE ILE     MOSUNNY   73  45  37 W6        30.04F
HILLSDALE      PTSUNNY   70  45  40 W10G17    30.07F
HOWELL         MOSUNNY   72  42  34 W10       30.04F

CITY           SKY/WX    TMP DP  RH WIND       PRES   REMARKS
JACKSON        SUNNY     72  47  40 W10G20    30.06F
LANSING        PTSUNNY   72  44  36 W12       30.05F
MASON          PTSUNNY   71  46  41 W13       30.05F
MONROE         PTSUNNY   70  44  38 CALM      30.05F
MT. CLEMENS    PTSUNNY   71  46  40 W9        30.01F
PONTIAC        PTSUNNY   71  45  39 W13       30.03F
PORT HOPE        N/A     71  47  42 VRB7      29.98F
PORT HURON     MOSUNNY   70  43  37 NW7       30.02F
TRI CITIES     LGT RAIN  67  52  58 CALM      30.02F
YPSILANTI      MOSUNNY   75  45  34 NW9       30.05F
$$
MIZ043>046-050>051-056>058-064>065-071>073-077>080-272100-
SOUTHWEST LOWER MICHIGAN

CITY           SKY/WX    TMP DP  RH WIND       PRES   REMARKS
BATTLE CREEK   PTSUNNY   74  44  34 W17       30.08F
BENTON HARBOR  SUNNY     71  43  36 VRB6      30.11S
BIG RAPIDS     MOSUNNY   69  41  36 NW9G22    30.03S
COLDWATER      CLOUDY    72  42  33 W7G16     30.08F
HOLLAND        SUNNY     70  51  51 W14       30.10S
GRAND RAPIDS   MOSUNNY   71  48  43 W17G23    30.06F
KALAMAZOO      MOSUNNY   71  41  33 NW12G17   30.08F
MARSHALL       PTSUNNY   72  44  37 NW14      30.06F
MOUNT PLEASANT MOSUNNY   70  46  42 W6        30.02S
MUSKEGON       MOSUNNY   69  49  48 SW12      30.08F
STURGIS        PTSUNNY   69  45  41 NW8       30.08F
$$
MIZ016>042-272100-
NORTHERN LOWER MICHIGAN

CITY           SKY/WX    TMP DP  RH WIND       PRES   REMARKS
ALPENA         MOSUNNY   71  48  43 NW10G20   29.97F
BEAVER ISLAND  SUNNY     66  50  55 W8        30.00S
BELLAIRE       CLOUDY    68  45  44 NW9       30.01S
CADILLAC       PTSUNNY   69  44  40 W12       30.02F
CHARLEVOIX     SUNNY     64  54  71 W12       30.04S
GAYLORD        MOSUNNY   67  43  41 W9G17     30.00F
HOUGHTON LAKE  MOSUNNY   67  49  52 W5        30.01F
MANISTEE       SUNNY     68  52  56 W12       30.04S
OSCODA         MOSUNNY   66  53  62 CALM      29.98F
PELLSTON       SUNNY     69  44  40 NW13      29.99F
TRAVERSE CITY  CLOUDY    72  45  37 NW10      30.00S
LUDINGTON      MOSUNNY   66  53  62 SW8       30.05F
$$
MIZ007>008-015-272100-
EASTERN UPPER MICHIGAN

CITY           SKY/WX    TMP DP  RH WIND       PRES   REMARKS
KINROSS        SUNNY     68  43  40 VRB6      29.96F
MACKINAC ISLAN SUNNY     64  52  66 SW16      29.98F
NEWBERRY       MOSUNNY   68  47  46 SW6       29.96S
S. S. MARIE    MOSUNNY   66  45  46 W8        29.96F
$$
MIZ004>006-011>014-085-272100-
CENTRAL UPPER MICHIGAN

CITY           SKY/WX    TMP DP  RH WIND       PRES   REMARKS
MANISTIQUE     SUNNY     64  54  68 S10       29.98F
ESCANABA       MOSUNNY   68  52  56 S12G18    29.99F
MENOMINEE      MOSUNNY   72  53  51 S5        29.99F
SAWYER-GWINN   PTSUNNY   70  45  40 NE3       29.98F
$$
MIZ001>003-009>011-084-272100-
WESTERN UPPER MICHIGAN

CITY           SKY/WX    TMP DP  RH WIND       PRES   REMARKS
IRON MOUNTAIN  SUNNY     73  44  35 CALM      29.97F
HOUGHTON       SUNNY     72  43  35 W13       29.94F
COPPER HARBOR    N/A     67  52  58 N10       29.92F
IRONWOOD       MOSUNNY   73  47  39 SW18G24   29.95F
$$

ABBREVIATIONS USED IN REMARKS
   TC - TEMPERATURE IN CELSIUS
  WCI - WIND CHILL INDEX
   HX - HEAT INDEX
  VSB - VISIBILITY





USA.gov is the U.S. government's official web portal to all federal, state and local government web resources and services.